K7YVO Weather Reports


time (UTC)temp
C
wind
direction
speed
KPH
gust
KPH
rain 1hr
cm
rain 24hr
cm
rain mn
cm
humidity
%
barometer
mb
20260503181149 23 183 1.6 3.2 0.00 0.00 0.00 53 1013.8
20260503180646 23 157 0.0 3.2 0.00 0.00 0.00 55 1013.7
20260503180145 22 183 3.2 4.8 0.00 0.00 0.00 57 1013.8
20260503175641 23 287 3.2 3.2 0.00 0.00 0.00 57 1013.6
20260503175138 22 214 1.6 3.2 0.00 0.00 0.00 58 1013.9
20260503174634 22 205 0.0 1.6 0.00 0.00 0.00 58 1013.7
20260503174132 22 197 1.6 3.2 0.00 0.00 0.00 58 1013.7
20260503173626 22 200 0.0 3.2 0.00 0.00 0.00 59 1013.7
20260503173123 21 213 0.0 1.6 0.00 0.00 0.00 59 1014.0
20260503172620 21 285 0.0 1.6 0.00 0.00 0.00 58 1013.9
20260503172117 21 233 0.0 0.0 0.00 0.00 0.00 58 1013.9
20260503171614 21 203 0.0 0.0 0.00 0.00 0.00 57 1013.8
20260503171111 20 203 0.0 1.6 0.00 0.00 0.00 58 1013.9
20260503170608 20 194 0.0 3.2 0.00 0.00 0.00 59 1014.1
20260503170105 20 252 0.0 0.0 0.00 0.00 0.00 58 1013.9
20260503151000 15 206 0.0 0.0 0.00 0.00 0.00 77 1014.3
20260503150456 14 206 0.0 0.0 0.00 0.00 0.00 77 1014.2
20260503131338 11 202 0.0 0.0 0.00 0.00 0.00 84 1013.8
20260503130836 12 197 0.0 0.0 0.00 0.00 0.00 80 1013.7
20260503130333 12 202 0.0 0.0 0.00 0.00 0.00 79 1013.9
20260503110732 12 227 0.0 0.0 0.00 0.00 0.00 82 1014.1
20260503110229 12 201 0.0 0.0 0.00 0.00 0.00 83 1014.2
20260503100155 12 202 0.0 0.0 0.00 0.00 0.00 88 1014.5
20260503090115 13 207 0.0 1.6 0.00 0.00 0.00 89 1014.8
20260503081545 13 202 0.0 0.0 0.00 0.00 0.00 91 1014.8
20260503081043 13 203 0.0 0.0 0.00 0.00 0.00 90 1014.8
20260503080538 14 207 0.0 1.6 0.00 0.00 0.00 87 1014.8
20260503072506 15 198 0.0 0.0 0.00 0.00 0.00 86 1015.1
20260503072004 15 197 0.0 0.0 0.00 0.00 0.00 86 1014.8
20260503071500 15 200 0.0 0.0 0.00 0.00 0.00 86 1014.9
20260503070956 15 200 0.0 0.0 0.00 0.00 0.00 87 1015.0
20260503070453 15 201 0.0 0.0 0.00 0.00 0.00 87 1014.9
20260503054912 16 201 0.0 0.0 0.00 0.05 0.05 81 1014.8
20260503054408 16 196 0.0 0.0 0.00 0.05 0.05 81 1014.9
20260503053906 16 201 0.0 0.0 0.00 0.05 0.05 80 1015.0
20260503053404 16 192 0.0 0.0 0.00 0.05 0.05 80 1015.2
20260503052859 16 226 1.6 1.6 0.00 0.05 0.05 80 1015.1
20260503052357 16 197 0.0 1.6 0.00 0.05 0.05 80 1015.2
20260503051853 16 195 0.0 0.0 0.00 0.05 0.05 80 1014.7
20260503051349 16 201 0.0 0.0 0.00 0.05 0.05 82 1014.9
20260503050846 16 201 0.0 0.0 0.00 0.05 0.05 79 1014.6
20260503050343 17 220 1.6 3.2 0.00 0.05 0.05 79 1014.7
20260503045840 16 199 0.0 0.0 0.00 0.05 0.05 79 1014.9
20260503045338 16 199 0.0 1.6 0.00 0.05 0.05 79 1014.7
20260503044834 16 201 0.0 0.0 0.00 0.05 0.05 79 1014.8
20260503044331 17 199 0.0 0.0 0.00 0.05 0.05 79 1014.7
20260503043828 17 202 0.0 0.0 0.00 0.05 0.05 78 1014.7
20260503043325 17 204 0.0 1.6 0.00 0.05 0.05 78 1014.7
20260503042821 17 211 0.0 0.0 0.00 0.05 0.05 77 1014.7
20260503042318 17 200 0.0 1.6 0.00 0.05 0.05 76 1015.0
20260503041814 17 201 1.6 1.6 0.00 0.05 0.05 75 1015.0
20260503041312 17 203 0.0 0.0 0.00 0.05 0.05 75 1015.0
20260503040809 17 199 0.0 0.0 0.00 0.05 0.05 75 1015.0
20260503040307 17 205 0.0 1.6 0.00 0.05 0.05 75 1015.1
20260503035803 17 201 0.0 0.0 0.00 0.05 0.05 75 1015.0
20260503035301 17 199 0.0 0.0 0.00 0.05 0.05 76 1015.1
20260503034758 17 197 0.0 0.0 0.00 0.05 0.05 76 1015.1
20260503034255 17 201 0.0 0.0 0.00 0.05 0.05 75 1015.1
20260503033752 17 200 0.0 0.0 0.00 0.05 0.05 74 1014.9
20260503033250 18 194 0.0 0.0 0.00 0.05 0.05 73 1014.8
20260503032748 18 201 0.0 0.0 0.00 0.05 0.05 73 1014.9
20260503032246 18 197 0.0 0.0 0.00 0.05 0.05 72 1015.0
20260503031743 18 194 0.0 0.0 0.00 0.05 0.05 71 1014.9
20260503031241 18 202 0.0 0.0 0.00 0.05 0.05 70 1014.8
20260503030737 18 201 0.0 0.0 0.00 0.05 0.05 70 1014.8
20260503030234 18 202 0.0 0.0 0.00 0.05 0.05 70 1014.9
20260503025730 18 196 0.0 0.0 0.00 0.05 0.05 70 1014.9
20260503025228 18 203 0.0 1.6 0.00 0.05 0.05 70 1014.9
20260503024724 18 203 0.0 1.6 0.00 0.05 0.05 69 1014.7
20260503024222 19 197 1.6 1.6 0.00 0.05 0.05 69 1014.9
20260503023719 19 197 0.0 1.6 0.00 0.05 0.05 68 1014.8
20260503023215 19 204 1.6 3.2 0.00 0.05 0.05 68 1014.9
20260503022711 19 232 0.0 1.6 0.00 0.05 0.05 68 1014.9
20260503022211 19 192 0.0 1.6 0.00 0.05 0.05 68 1014.8
20260503021708 19 195 0.0 1.6 0.00 0.05 0.05 68 1014.8
20260503021204 19 207 1.6 3.2 0.00 0.05 0.05 68 1014.8
20260503020702 19 189 0.0 4.8 0.00 0.05 0.05 68 1014.9
20260503020159 20 201 3.2 4.8 0.00 0.05 0.05 68 1014.6
20260503015656 20 191 0.0 1.6 0.00 0.05 0.05 66 1014.4
20260503015153 20 200 0.0 1.6 0.00 0.05 0.05 65 1014.3
20260503014649 20 204 0.0 1.6 0.00 0.05 0.05 66 1014.3
20260503014147 20 207 1.6 1.6 0.00 0.05 0.05 66 1014.2
20260503013644 20 201 1.6 1.6 0.00 0.05 0.05 64 1014.1
20260503013142 20 202 0.0 3.2 0.00 0.05 0.05 63 1013.9
20260503012638 20 214 0.0 0.0 0.00 0.05 0.05 63 1014.0
20260503012135 20 213 0.0 1.6 0.00 0.05 0.05 64 1014.1
20260503011632 20 224 0.0 0.0 0.00 0.05 0.05 63 1014.1
20260503011129 20 211 0.0 0.0 0.00 0.05 0.05 63 1014.1
20260503010625 20 217 0.0 1.6 0.00 0.05 0.05 64 1014.0
20260503010123 20 241 1.6 3.2 0.00 0.05 0.05 65 1013.8
20260503005619 20 212 0.0 1.6 0.00 0.05 0.05 66 1014.0
20260503005117 20 203 0.0 1.6 0.00 0.05 0.05 63 1013.9
20260503004613 20 205 0.0 3.2 0.00 0.05 0.05 63 1013.9
20260503004112 20 204 0.0 3.2 0.00 0.05 0.05 63 1014.0
20260503003608 20 235 1.6 1.6 0.00 0.05 0.05 62 1014.0
20260503003105 20 208 0.0 3.2 0.00 0.05 0.05 62 1014.1
20260503002602 20 199 1.6 4.8 0.00 0.05 0.05 62 1013.9
20260503002059 21 205 1.6 3.2 0.00 0.05 0.05 62 1013.9
20260503001555 21 204 1.6 1.6 0.00 0.05 0.05 61 1013.9
20260503001052 20 201 0.0 3.2 0.00 0.05 0.05 62 1013.8
20260503000550 21 220 1.6 3.2 0.00 0.05 0.05 62 1014.0
20260503000047 20 196 0.0 1.6 0.00 0.05 0.05 62 1013.8
20260502235543 21 207 0.0 0.0 0.00 0.05 0.05 59 1013.8
20260502235041 21 234 3.2 4.8 0.00 0.05 0.05 59 1014.1
20260502234537 21 204 1.6 3.2 0.00 0.05 0.05 61 1013.9
20260502234035 21 235 1.6 3.2 0.00 0.05 0.05 60 1014.2
20260502233530 20 204 0.0 3.2 0.00 0.05 0.05 62 1014.2
20260502233027 20 206 0.0 3.2 0.00 0.05 0.05 61 1014.3
20260502232523 21 203 0.0 3.2 0.00 0.05 0.05 60 1014.2
20260502232020 20 198 0.0 9.7 0.00 0.05 0.05 63 1014.3
20260502231517 20 219 0.0 3.2 0.00 0.05 0.05 61 1014.2
20260502231015 20 261 3.2 9.7 0.00 0.05 0.05 63 1014.3
20260502230514 20 193 4.8 4.8 0.00 0.05 0.05 62 1014.5
20260502230012 20 201 1.6 4.8 0.00 0.05 0.05 61 1014.5
20260502225511 20 206 0.0 6.4 0.00 0.05 0.05 62 1014.5
20260502225009 20 205 1.6 4.8 0.00 0.05 0.05 62 1014.5
20260502224505 20 252 1.6 4.8 0.00 0.05 0.05 61 1014.5
20260502224002 21 205 3.2 6.4 0.00 0.05 0.05 62 1014.6
20260502223500 21 191 0.0 6.4 0.00 0.05 0.05 60 1014.8
20260502222958 21 261 3.2 4.8 0.00 0.05 0.05 61 1014.7
20260502222455 20 197 0.0 4.8 0.00 0.05 0.05 63 1014.8
20260502221951 22 197 1.6 1.6 0.00 0.05 0.05 56 1014.8
20260502221447 20 204 1.6 4.8 0.00 0.05 0.05 61 1014.8
20260502220944 20 242 1.6 9.7 0.00 0.05 0.05 64 1015.2
20260502220440 19 205 0.0 3.2 0.00 0.05 0.05 63 1015.2
20260502215937 19 242 1.6 9.7 0.00 0.05 0.05 63 1015.4
20260502215434 19 208 1.6 3.2 0.00 0.05 0.05 63 1015.3
20260502214931 20 228 1.6 3.2 0.00 0.05 0.05 63 1015.3
20260502214428 19 218 1.6 4.8 0.00 0.05 0.05 65 1015.4
20260502213925 18 224 1.6 3.2 0.00 0.05 0.05 66 1015.5
20260502213422 18 215 1.6 4.8 0.00 0.05 0.05 68 1015.5
20260502212921 18 200 1.6 4.8 0.00 0.05 0.05 68 1015.6
20260502212419 18 204 0.0 3.2 0.00 0.05 0.05 68 1015.8
20260502211916 17 178 1.6 4.8 0.00 0.05 0.05 68 1015.8
20260502211411 18 210 3.2 4.8 0.00 0.05 0.05 66 1015.9
20260502210909 17 203 6.4 6.4 0.00 0.05 0.05 69 1015.9
20260502210406 17 204 1.6 3.2 0.00 0.05 0.05 68 1016.0
20260502205903 17 177 1.6 3.2 0.00 0.05 0.05 67 1016.2
20260502205359 17 205 1.6 4.8 0.00 0.05 0.05 70 1016.3
20260502204856 16 205 3.2 4.8 0.00 0.05 0.05 72 1016.3
20260502204353 16 204 0.0 1.6 0.00 0.05 0.05 72 1016.4
20260502203851 16 199 3.2 9.7 0.00 0.05 0.05 73 1016.3
20260502203348 17 175 1.6 4.8 0.00 0.05 0.05 70 1016.4
20260502202844 16 204 0.0 3.2 0.00 0.05 0.05 72 1016.6
20260502202341 15 207 0.0 4.8 0.00 0.05 0.05 75 1016.6
20260502201839 15 213 1.6 3.2 0.00 0.05 0.05 74 1016.6
20260502201335 15 211 3.2 3.2 0.00 0.05 0.05 76 1016.6
20260502200831 15 203 3.2 3.2 0.00 0.05 0.05 75 1016.9
20260502200327 15 208 0.0 1.6 0.00 0.05 0.05 75 1016.7
20260502195825 15 211 0.0 1.6 0.00 0.05 0.05 76 1016.8
20260502195322 13 198 0.0 4.8 0.00 0.05 0.05 79 1016.9
20260502194818 13 209 0.0 3.2 0.00 0.05 0.05 79 1016.7
20260502194315 13 216 1.6 6.4 0.00 0.05 0.05 80 1017.2
20260502193811 13 261 3.2 6.4 0.00 0.05 0.05 79 1017.1
20260502193309 13 209 0.0 1.6 0.00 0.05 0.05 80 1016.9
20260502192804 13 206 3.2 4.8 0.00 0.05 0.05 80 1017.0
20260502192304 13 212 0.0 3.2 0.00 0.05 0.05 80 1017.1
20260502191758 13 241 3.2 4.8 0.00 0.05 0.05 81 1017.1
20260502191256 13 258 4.8 6.4 0.00 0.05 0.05 81 1017.3
20260502190753 13 219 1.6 3.2 0.00 0.05 0.05 82 1017.2
20260502190250 13 212 1.6 3.2 0.00 0.05 0.05 81 1017.2
20260502185745 13 209 0.0 4.8 0.00 0.05 0.05 82 1017.0
20260502185241 13 215 1.6 1.6 0.00 0.05 0.05 81 1017.3
20260502184737 12 214 1.6 6.4 0.00 0.05 0.05 83 1017.1
20260502184228 13 209 0.0 3.2 0.00 0.05 0.05 83 1017.4
20260502183725 13 210 1.6 3.2 0.00 0.05 0.05 82 1017.0
20260502183221 12 205 3.2 4.8 0.00 0.05 0.05 83 1016.8
20260502182716 12 209 0.0 0.0 0.00 0.05 0.05 82 1017.1
20260502182211 12 220 1.6 3.2 0.00 0.05 0.05 86 1017.2
20260502181708 12 210 0.0 1.6 0.00 0.05 0.05 85 1017.1